• In United States
  • List of Countries
  • For 7 days
  • Water Temperature
  • Satellite Maps
  • Weather Map
  • Weather Widgets
  • user-avatar
    Login

    Hourly Weather Tibissa

    Today, 20 January, Saturday

    Time Temperature Precipitation Wind Pressure Humidity
    00:00 +6°C° 0 mm 5 mps 683 mmHg 82%
    01:00 +4°C° 0 mm 6 mps 683 mmHg 89%
    02:00 +4°C° 0 mm 7 mps 683 mmHg 87%
    03:00 +4°C° 0 mm 8 mps 683 mmHg 86%
    04:00 +3°C° 0 mm 9 mps 683 mmHg 84%
    05:00 +3°C° 0 mm 9 mps 683 mmHg 84%
    06:00 +3°C° 0 mm 10 mps 683 mmHg 84%
    07:00 +3°C° 0 mm 9 mps 684 mmHg 84%
    08:00 +3°C° 0 mm 10 mps 684 mmHg 81%
    09:00 +5°C° 0 mm 10 mps 684 mmHg 79%
    10:00 +4°C° 0 mm 11 mps 685 mmHg 76%
    11:00 +6°C° 0 mm 11 mps 685 mmHg 73%
    12:00 +6°C° 0 mm 11 mps 685 mmHg 71%
    13:00 +7°C° 0 mm 10 mps 685 mmHg 68%
    14:00 +7°C° 0 mm 10 mps 686 mmHg 67%
    15:00 +7°C° 0 mm 10 mps 686 mmHg 67%
    16:00 +7°C° 0 mm 9 mps 686 mmHg 66%
    17:00 +6°C° 0 mm 8 mps 686 mmHg 71%
    18:00 +6°C° 0 mm 7 mps 686 mmHg 75%
    19:00 +5°C° 0 mm 6 mps 686 mmHg 80%
    20:00 +5°C° 0 mm 6 mps 686 mmHg 82%
    21:00 +4°C° 0 mm 6 mps 686 mmHg 84%
    22:00 +4°C° 0 mm 6 mps 687 mmHg 86%
    23:00 +4°C° 0 mm 6 mps 687 mmHg 85%

    Tomorrow, 21 January, Sunday

    Time Temperature Precipitation Wind Pressure Humidity
    00:00 +5°C° 0 mm 5 mps 686 mmHg 85%
    01:00 +3°C° 0 mm 5 mps 686 mmHg 85%
    02:00 +3°C° 0 mm 5 mps 686 mmHg 84%
    03:00 +3°C° 0 mm 5 mps 686 mmHg 83%
    04:00 +3°C° 0 mm 5 mps 686 mmHg 82%
    05:00 +3°C° 0 mm 5 mps 686 mmHg 79%
    06:00 +3°C° 0 mm 5 mps 686 mmHg 77%
    07:00 +3°C° 0 mm 5 mps 686 mmHg 75%
    08:00 +6°C° 0 mm 5 mps 686 mmHg 69%
    09:00 +7°C° 0 mm 6 mps 687 mmHg 64%
    10:00 +9°C° 0 mm 6 mps 687 mmHg 59%
    11:00 +10°C° 0 mm 7 mps 687 mmHg 57%
    12:00 +11°C° 0 mm 8 mps 687 mmHg 55%
    13:00 +12°C° 0 mm 9 mps 687 mmHg 52%
    14:00 +12°C° 0 mm 9 mps 687 mmHg 54%
    15:00 +12°C° 0 mm 10 mps 687 mmHg 56%
    16:00 +12°C° 0 mm 10 mps 687 mmHg 58%
    17:00 +11°C° 0 mm 9 mps 687 mmHg 65%
    18:00 +10°C° 0 mm 8 mps 687 mmHg 72%
    19:00 +9°C° 0 mm 7 mps 687 mmHg 78%
    20:00 +8°C° 0 mm 6 mps 687 mmHg 81%
    21:00 +8°C° 0 mm 6 mps 687 mmHg 84%
    22:00 +7°C° 0 mm 6 mps 688 mmHg 86%
    23:00 +7°C° 0 mm 6 mps 688 mmHg 85%

    Day after tomorrow, 22 January, Monday

    Time Temperature Precipitation Wind Pressure Humidity
    00:00 +7°C° 0 mm 6 mps 688 mmHg 83%
    01:00 +7°C° 0 mm 6 mps 688 mmHg 82%
    02:00 +6°C° 0 mm 7 mps 688 mmHg 84%
    03:00 +6°C° 0 mm 8 mps 688 mmHg 86%
    04:00 +6°C° 0 mm 9 mps 688 mmHg 87%
    05:00 +6°C° 0 mm 9 mps 688 mmHg 88%
    06:00 +6°C° 0 mm 9 mps 688 mmHg 89%
    07:00 +6°C° 0 mm 9 mps 688 mmHg 89%
    08:00 +7°C° 0 mm 9 mps 689 mmHg 83%
    09:00 +8°C° 0 mm 10 mps 689 mmHg 77%
    10:00 +9°C° 0 mm 10 mps 690 mmHg 71%
    11:00 +11°C° 0 mm 9 mps 690 mmHg 67%
    12:00 +12°C° 0 mm 9 mps 690 mmHg 62%
    13:00 +13°C° 0 mm 8 mps 690 mmHg 58%
    14:00 +13°C° 0 mm 8 mps 690 mmHg 56%
    15:00 +15°C° 0 mm 8 mps 690 mmHg 55%
    16:00 +15°C° 0 mm 8 mps 690 mmHg 53%
    17:00 +14°C° 0 mm 7 mps 690 mmHg 58%
    18:00 +13°C° 0 mm 6 mps 690 mmHg 63%
    19:00 +11°C° 0 mm 4 mps 690 mmHg 67%
    20:00 +11°C° 0 mm 4 mps 690 mmHg 69%
    21:00 +10°C° 0 mm 4 mps 690 mmHg 71%
    22:00 +10°C° 0 mm 4 mps 690 mmHg 72%
    23:00 +10°C° 0 mm 4 mps 690 mmHg 73%

    23 January, Tuesday

    Time Temperature Precipitation Wind Pressure Humidity
    00:00 +8°C° 0 mm 4 mps 689 mmHg 73%
    01:00 +8°C° 0 mm 4 mps 689 mmHg 74%
    02:00 +7°C° 0 mm 4 mps 689 mmHg 75%
    03:00 +7°C° 0 mm 4 mps 689 mmHg 75%
    04:00 +7°C° 0 mm 4 mps 689 mmHg 76%
    05:00 +7°C° 0 mm 4 mps 689 mmHg 77%
    06:00 +7°C° 0 mm 4 mps 689 mmHg 78%
    07:00 +6°C° 0 mm 4 mps 689 mmHg 78%
    08:00 +8°C° 0 mm 5 mps 689 mmHg 73%
    09:00 +9°C° 0 mm 6 mps 690 mmHg 68%
    10:00 +10°C° 0 mm 6 mps 690 mmHg 63%
    11:00 +11°C° 0 mm 7 mps 690 mmHg 59%
    12:00 +12°C° 0 mm 7 mps 690 mmHg 54%
    13:00 +14°C° 0 mm 7 mps 690 mmHg 50%
    14:00 +14°C° 0 mm 7 mps 690 mmHg 50%
    15:00 +14°C° 0 mm 7 mps 690 mmHg 51%
    16:00 +14°C° 0 mm 7 mps 690 mmHg 51%
    17:00 +13°C° 0 mm 6 mps 690 mmHg 58%
    18:00 +12°C° 0 mm 5 mps 690 mmHg 64%
    19:00 +10°C° 0 mm 4 mps 690 mmHg 70%
    20:00 +10°C° 0 mm 4 mps 690 mmHg 74%
    21:00 +8°C° 0 mm 4 mps 690 mmHg 77%
    22:00 +8°C° 0 mm 4 mps 690 mmHg 80%
    23:00 +7°C° 0 mm 4 mps 690 mmHg 81%

    24 January, Wednesday

    Time Temperature Precipitation Wind Pressure Humidity
    00:00 +7°C° 0 mm 4 mps 690 mmHg 81%
    01:00 +6°C° 0 mm 4 mps 690 mmHg 82%
    02:00 +6°C° 0 mm 4 mps 690 mmHg 83%
    03:00 +6°C° 0 mm 5 mps 690 mmHg 84%
    04:00 +6°C° 0 mm 5 mps 690 mmHg 84%
    05:00 +5°C° 0 mm 5 mps 690 mmHg 85%
    06:00 +5°C° 0 mm 4 mps 690 mmHg 85%
    07:00 +5°C° 0 mm 4 mps 691 mmHg 85%
    08:00 +6°C° 0 mm 4 mps 691 mmHg 81%
    09:00 +7°C° 0 mm 4 mps 692 mmHg 76%
    10:00 +8°C° 0 mm 4 mps 692 mmHg 72%
    11:00 +10°C° 0 mm 3 mps 692 mmHg 67%
    12:00 +11°C° 0 mm 3 mps 692 mmHg 62%
    13:00 +12°C° 0 mm 3 mps 693 mmHg 57%
    14:00 +13°C° 0 mm 2 mps 692 mmHg 56%
    15:00 +14°C° 0 mm 2 mps 692 mmHg 54%
    16:00 +14°C° 0 mm 2 mps 692 mmHg 53%
    17:00 +13°C° 0 mm 2 mps 692 mmHg 58%
    18:00 +12°C° 0 mm 2 mps 692 mmHg 64%
    19:00 +10°C° 0 mm 2 mps 692 mmHg 69%
    20:00 +9°C° 0 mm 2 mps 693 mmHg 73%
    21:00 +8°C° 0 mm 2 mps 693 mmHg 76%
    22:00 +9°C° 0 mm 1 mps 693 mmHg 80%
    23:00 +8°C° 0 mm 1 mps 693 mmHg 82%

    25 January, Thursday

    Time Temperature Precipitation Wind Pressure Humidity
    00:00 +8°C° 0 mm 1 mps 693 mmHg 84%
    01:00 +7°C° 0 mm 1 mps 692 mmHg 86%
    02:00 +7°C° 0 mm 1 mps 692 mmHg 87%
    03:00 +7°C° 0 mm 1 mps 692 mmHg 88%
    04:00 +6°C° 0 mm 1 mps 692 mmHg 89%
    05:00 +5°C° 0 mm 2 mps 692 mmHg 90%
    06:00 +5°C° 0 mm 2 mps 692 mmHg 90%
    07:00 +5°C° 0 mm 2 mps 692 mmHg 90%
    08:00 +6°C° 0 mm 2 mps 692 mmHg 85%
    09:00 +8°C° 0 mm 3 mps 692 mmHg 79%
    10:00 +9°C° 0 mm 3 mps 693 mmHg 74%
    11:00 +10°C° 0 mm 4 mps 692 mmHg 67%
    12:00 +11°C° 0 mm 4 mps 692 mmHg 60%
    13:00 +13°C° 0 mm 4 mps 692 mmHg 54%
    14:00 +13°C° 0 mm 4 mps 691 mmHg 53%
    15:00 +13°C° 0 mm 4 mps 691 mmHg 51%
    16:00 +13°C° 0 mm 4 mps 691 mmHg 50%
    17:00 +12°C° 0 mm 4 mps 690 mmHg 57%
    18:00 +11°C° 0 mm 3 mps 690 mmHg 63%
    19:00 +9°C° 0 mm 3 mps 690 mmHg 70%
    20:00 +9°C° 0 mm 3 mps 690 mmHg 74%
    21:00 +8°C° 0 mm 3 mps 690 mmHg 77%
    22:00 +8°C° 0 mm 3 mps 690 mmHg 81%
    23:00 +8°C° 0 mm 3 mps 689 mmHg 82%
    Show more